Location: Newark
(45.9167°N, 5.5000°E)
Time: 22:09:11
(UTC+00:00)

N. Korean satellite - Pass Details

Date: 28 January 2020
Orbit: 456 x 505 km, 97.2° (Epoch: 19 February)

Event Time Altitude Azimuth Distance (km) Brightness Sun altitude
Rises 04:26:13 0° 31° (NNE) 2,550 10.6 -27.7°
Reaches altitude 10° 04:29:03 10° 56° (NE) 1,676 10.0 -27.2°
Maximum altitude 04:31:08 15° 91° (E) 1,412 9.8 -26.8°
Drops below altitude 10° 04:33:13 10° 127° (SE) 1,683 9.9 -26.4°
Sets 04:36:04 0° 152° (SSE) 2,569 10.6 -25.9°
